Regional Weather Roundup
Issued by NWS

Home | Current Version | Previous Version | Text Only | Print | Product List | Glossary On
Versions: 1 2 3 4 5 6 7 8 9 10 11 12 13 14 15 16 17 18 19 20 21 22 23 24 25 26 27 28 29 30 31 32 33 34 35 36 37 38 39 40 41 42 43 44 45 46 47 48 49 50
000
ASUS43 KIND 021509
RWRIN

WEATHER ROUNDUP FOR INDIANA
NATIONAL WEATHER SERVICE INDIANAPOLIS IN
1100 AM EDT THU OCT 02 2014

NOTE: "FAIR" INDICATES FEW OR NO CLOUDS BELOW 12,000 FEET WITH NO
SIGNIFICANT WEATHER AND/OR OBSTRUCTIONS TO VISIBILITY.

* - STATION DOES NOT REPORT WEATHER SUCH AS PRECIPITATION OR FOG.

+ - STATION NOT QUALITY CONTROLLED BY THE NATIONAL WEATHER SERVICE.
    USE DATA WITH CAUTION...ESPECIALLY DEWPOINT AND RELATIVE
    HUMIDITY OBSERVATIONS.

INZ001>003-010>013-019-020-021600-
NORTHWEST INDIANA

CITY           SKY/WX    TMP DP  RH WIND       PRES   REMARKS
GARY /AIRPORT/ CLOUDY    66  63  88 VRB5      29.90S
KNOX *+        FAIR      65  60  82 S6        29.90F
LA PORTE +     PTSUNNY   67  64  88 S6        29.92F
MICHIGAN CITY+ PTSUNNY   66  59  77 S6        29.92S
MONTICELLO +   FAIR      69  65  89 S7        29.89R
RENSSELAER +   CLOUDY    68  66  94 S7        29.90R
VALPARAISO     CLOUDY    66  62  87 VRB5      29.91S

$$

LMZ046-743>745-021600-
SOUTHERN LAKE MICHIGAN

STATION/POSITION TIME  TEMP WIND        PRES
                       AIR  DIR/SP/G
                 (UTC) (F)  (DEG/KT/KT) (MB)
MICHIGAN CITY    1500   66  150/  8/ 14   N/A

$$

INZ004-005-014>016-021>024-021600-
NORTH CENTRAL INDIANA

CITY           SKY/WX    TMP DP  RH WIND       PRES   REMARKS
GOSHEN         CLOUDY    64  57  78 S5        29.95
LOGANSPORT +   FAIR      68  61  77 S17G23    29.91S
PERU/GRISSOM   MOSUNNY   65  65 100 S9        29.92F
ROCHESTER +    FAIR      68  63  83 S7        29.92R
SOUTH BEND     CLOUDY    64  59  82 SE6       29.94R
WARSAW +       DRIZZLE   63  59  88 SW3       29.93S

$$

INZ006>009-017-018-025>027-021600-
NORTHEAST INDIANA

CITY           SKY/WX    TMP DP  RH WIND       PRES   REMARKS
ANGOLA *+      SUNNY     61  54  77 S7        29.96F
AUBURN +       FAIR      63  54  72 CALM      29.97F
FORT WAYNE     LGT RAIN  65  56  72 S9        29.96F
HUNTINGTON +   PTSUNNY   65  57  77 S6        29.94F

$$

INZ028-029-035-036-043>045-051>053-021600-
WEST CENTRAL INDIANA

CITY           SKY/WX    TMP DP  RH WIND       PRES   REMARKS
CRAWFORDSVL +    N/A     66  63  88 S14G20    29.91
GREENCASTLE +  LGT RAIN  63  61  94 S13       29.94F
LAFAYETTE      FAIR      69  64  84 S9        29.89S
TERRE HAUTE    LGT RAIN  65  63  93 SE5       29.96R FOG

$$

INZ030>032-037>040-046>048-054>057-064-065-021600-
CENTRAL INDIANA

CITY           SKY/WX    TMP DP  RH WIND       PRES   REMARKS
CP ATTERBURY + PTSUNNY   66  59  77 SE3       30.01F
COLUMBUS       PTSUNNY   66  59  77 MISG      30.01S
FRANKFORT +    FAIR      67  67 100 SE6       29.92F
INDIANAPOLIS   PTSUNNY   63  59  87 SE16      29.94F
-EAGLE CREEK   LGT RAIN  64  61  90 S10       29.93F
KOKOMO *+      FAIR      64  61  88 S12       29.93F
MARION +       CLOUDY    64  56  75 S8        29.94F
MT COMFORT *+  CLOUDY    64  59  82 S9        29.96F
SHELBYVILLE    FAIR      71  57  61 S8        29.99F
ZIONSVILLE +   FAIR      65  61  86 S9        29.94F HAZE

$$

INZ033-034-041-042-049-050-058-059-021600-
EAST CENTRAL INDIANA

CITY           SKY/WX    TMP DP  RH WIND       PRES   REMARKS
MUNCIE         PTSUNNY   68  56  65 S9        29.95F

$$

INZ060-061-067>069-081>083-085>088-021600-
SOUTHWEST INDIANA

CITY           SKY/WX    TMP DP  RH WIND       PRES   REMARKS
EVANSVILLE     FAIR      78  62  57 SW13      29.97R
WASHINGTON +   PTSUNNY   72  59  65 CALM      29.97S

$$

INZ062-063-066-070>080-084-089>092-021600-
SOUTH CENTRAL AND SOUTHEAST INDIANA

CITY           SKY/WX    TMP DP  RH WIND       PRES   REMARKS
BEDFORD +      PTSUNNY   72  59  64 CALM      30.00
BLOOMINGTON    PTSUNNY   65  61  87 SE5       29.99F
SEYMOUR +      PTSUNNY   75  59  57 S9        29.99

$$




USA.gov is the U.S. government's official web portal to all federal, state and local government web resources and services.